Location: Czu?�w
(50.1404°N, 18.9919°E)
Time: 02:32:55
(UTC+00:00)

In-Cosmos 22 Rocket - Pass Details

Date: 27 October 2020
Orbit: 790 x 888 km, 81.2° (Epoch: 24 November)

Event Time Altitude Azimuth Distance (km) Brightness Sun altitude
Rises 16:20:12 0° 351° (N) 3,307 7.3 -8.8°
Reaches altitude 10° 16:22:40 10° 357° (N) 2,378 6.5 -9.2°
Maximum altitude 16:27:51 49° 72° (ENE) 1,036 4.3 -10.0°
Drops below altitude 10° 16:33:06 10° 147° (SSE) 2,407 6.3 -10.8°
Sets 16:35:36 0° 153° (SSE) 3,349 7.1 -11.2°
